Date,TemperatureHighF,TemperatureAvgF,TemperatureLowF,DewpointHighF,DewpointAvgF,DewpointLowF,HumidityHigh,HumidityAvg,HumidityLow,PressureMaxIn,PressureMinIn,WindSpeedMaxMPH,WindSpeedAvgMPH,GustSpeedMaxMPH,PrecipitationSumIn
2014-1-1,18.6,8.8,-0.2,12.0,4.6,-3.0,91,83,68,30.36,30.03,7,1,18,0.00
2014-1-2,3.2,-0.9,-3.5,-1.0,-4.0,-7.0,89,87,78,30.42,29.95,28,15,31,0.00
2014-1-3,0.4,-2.1,-5.8,-2.0,-4.8,-9.0,89,88,87,30.25,29.77,30,11,35,0.00
2014-1-4,27.4,8.5,-8.5,27.0,6.6,-12.0,97,92,86,30.39,30.10,6,1,13,0.00
2014-1-5,30.2,23.3,14.9,30.0,22.6,14.0,99,97,94,30.23,30.07,5,1,7,0.01
2014-1-6,50.2,42.7,30.6,50.0,42.7,30.0,100,100,99,30.06,29.14,13,3,23,0.31
2014-1-7,31.6,18.2,9.8,31.0,5.5,-6.0,99,59,39,29.94,29.22,17,6,28,0.31
2014-1-8,20.7,14.8,9.6,7.0,3.5,-2.0,70,61,50,30.30,29.94,14,4,19,0.00
2014-1-9,23.0,15.5,8.9,8.0,6.4,4.0,82,68,44,30.55,30.27,8,2,14,0.00
2014-1-10,29.2,18.2,6.7,27.0,16.2,4.0,96,91,83,30.52,30.22,6,1,6,0.00
2014-1-11,50.9,39.1,24.8,51.0,38.6,23.0,100,98,94,30.22,29.14,30,3,32,0.80
2014-1-12,47.6,42.0,36.2,48.0,36.1,27.0,100,81,62,29.73,29.09,15,2,15,0.84
2014-1-13,42.5,37.6,29.7,40.0,30.9,25.0,92,77,58,30.00,29.75,7,1,12,0.00
2014-1-14,47.0,43.2,39.3,46.0,42.4,39.0,99,96,92,29.85,29.43,7,1,13,1.15
2014-1-15,45.3,37.9,32.1,41.0,36.6,32.0,99,95,76,29.97,29.41,8,1,11,1.21
2014-1-16,36.5,35.5,34.5,36.0,35.2,34.0,99,98,96,29.87,29.81,9,2,10,0.01
2014-1-17,43.3,35.3,29.2,42.0,34.6,29.0,99,97,88,29.89,29.82,6,0,10,0.00
2014-1-18,32.8,30.8,28.5,32.0,30.3,28.0,99,98,93,29.85,29.57,8,3,9,0.01
2014-1-19,32.9,30.5,27.6,32.0,29.4,25.0,99,95,87,29.61,29.31,11,2,21,0.06
2014-1-20,35.1,27.0,9.5,31.0,23.1,2.0,93,85,69,29.73,29.36,12,3,15,0.07
2014-1-21,11.7,7.5,0.6,4.0,-1.1,-5.0,82,68,53,30.00,29.74,19,4,23,0.07
2014-1-22,8.0,5.6,1.4,4.0,0.8,-5.0,88,80,71,29.90,29.48,27,12,32,0.00
2014-1-23,16.1,7.2,-1.3,4.0,-1.2,-7.0,78,69,55,29.97,29.73,7,1,13,0.00
2014-1-24,13.9,6.6,-0.6,5.0,-2.0,-6.0,84,69,50,30.09,29.96,5,1,12,0.00
2014-1-25,40.0,29.9,7.3,36.0,24.9,3.0,96,82,68,29.96,29.11,19,4,25,0.10
2014-1-26,32.5,17.5,10.1,32.0,7.4,-6.0,96,66,42,29.85,29.08,13,3,24,0.10
2014-1-27,42.8,29.8,16.1,42.0,22.9,-1.0,97,77,38,29.84,29.36,13,4,22,0.06
2014-1-28,18.6,14.7,9.3,7.0,-1.6,-7.0,74,49,36,30.20,29.83,10,2,22,0.06
2014-1-29,23.4,17.5,13.8,8.0,3.3,0.0,74,55,36,30.13,29.79,8,2,11,0.00
2014-1-30,28.9,21.1,13.2,22.0,10.0,1.0,78,63,49,30.32,30.02,7,2,12,0.00
2014-1-31,38.8,32.8,26.3,30.0,23.5,18.0,83,70,43,30.08,29.86,9,2,18,0.00
2014-2-1,37.7,30.3,23.1,32.0,24.9,20.0,95,81,53,30.27,29.97,3,0,11,0.01
2014-2-2,41.3,36.7,30.9,39.0,35.0,30.0,98,93,85,29.95,29.76,3,0,7,0.02
2014-2-3,32.7,27.8,20.2,32.0,21.2,15.0,98,76,66,30.22,29.95,14,5,20,0.01
2014-2-4,30.5,21.9,13.0,19.0,14.1,10.0,88,73,49,30.36,30.21,9,2,11,0.01
2014-2-5,23.2,21.3,18.3,22.0,18.1,14.0,95,88,72,30.33,29.67,20,10,23,0.00
2014-2-6,20.3,14.2,7.3,16.0,10.3,4.0,92,84,68,30.16,29.82,14,2,17,0.02
2014-2-7,27.2,17.9,8.1,15.0,11.3,6.0,93,77,50,30.08,30.00,9,2,17,0.02
2014-2-8,27.0,19.3,9.2,13.0,8.7,6.0,88,65,46,30.12,30.02,7,1,14,0.01
2014-2-9,23.7,18.3,10.5,17.0,9.3,6.0,88,69,48,30.11,29.92,8,2,9,0.01
2014-2-10,24.3,18.7,10.7,18.0,12.7,4.0,92,78,53,30.08,29.85,12,4,18,0.00
2014-2-11,22.0,12.6,4.7,9.0,2.3,-4.0,89,65,45,30.29,30.09,6,2,14,0.00
2014-2-12,24.1,11.5,0.9,7.0,0.5,-6.0,90,63,34,30.45,30.30,6,2,10,0.00
2014-2-13,34.6,28.4,9.1,34.0,26.7,7.0,99,93,79,30.36,29.15,20,9,27,0.22
2014-2-14,39.0,32.1,22.7,39.0,29.9,18.0,99,92,74,29.54,28.57,23,7,30,0.04
2014-2-15,34.4,26.2,18.4,28.0,23.3,17.0,97,89,69,29.83,29.34,20,6,26,0.01
2014-2-16,28.5,22.2,13.9,24.0,17.1,7.0,96,82,65,29.77,29.21,24,4,31,0.01
2014-2-17,25.3,15.8,7.8,7.0,3.4,-1.0,79,59,41,30.25,29.77,10,2,20,0.00
2014-2-18,31.5,17.7,-0.4,30.0,13.5,-4.0,98,84,65,30.32,29.80,16,5,19,0.00
2014-2-19,32.1,28.4,19.4,32.0,27.9,18.0,99,97,95,29.98,29.63,11,1,22,0.05
2014-2-20,46.0,35.3,27.3,36.0,30.5,25.0,99,84,46,30.15,29.64,7,1,12,0.13
2014-2-21,46.1,35.0,30.4,46.0,33.9,29.0,99,95,88,30.15,29.55,14,4,21,0.60
2014-2-22,44.8,38.6,31.0,42.0,32.9,29.0,99,81,57,29.79,29.58,11,3,17,0.60
2014-2-23,42.5,36.1,27.4,34.0,29.5,23.0,90,77,61,29.86,29.65,7,0,7,0.00
2014-2-24,36.0,29.1,16.5,33.0,15.8,4.0,93,60,38,29.75,29.55,12,2,18,0.00
2014-2-25,23.9,17.4,9.4,7.0,4.3,2.0,76,57,44,29.83,29.71,10,2,15,0.00
2014-2-26,27.0,16.1,5.6,17.0,9.3,3.0,89,75,55,29.84,29.63,9,1,11,0.00
2014-2-27,22.0,13.3,3.5,17.0,7.6,0.0,92,79,48,29.77,29.55,5,1,10,0.00
2014-2-28,22.7,16.1,8.1,12.0,1.5,-5.0,93,56,33,30.39,29.64,10,2,18,0.00
2014-3-1,33.3,21.8,4.6,28.0,14.2,-3.0,82,73,56,30.40,29.96,10,3,17,0.00
2014-3-2,33.3,27.8,18.8,27.0,16.7,3.0,91,65,40,29.95,29.88,10,1,14,0.02
2014-3-3,22.6,15.6,7.2,3.0,-2.2,-11.0,63,46,34,30.21,29.93,12,2,19,0.02
2014-3-4,23.9,15.1,0.1,13.0,0.9,-11.0,71,54,35,30.28,30.17,11,1,15,0.00
2014-3-5,20.1,15.1,9.7,12.0,4.8,-7.0,86,65,45,30.42,30.21,15,8,19,0.00
2014-3-6,27.9,14.5,0.9,7.0,-3.1,-11.0,85,49,20,30.53,30.42,13,3,18,0.00
2014-3-7,11.5,8.1,5.4,9.0,5.1,3.0,90,87,83,30.43,30.34,5,1,7,0.00
2014-3-9,33.9,28.4,22.1,10.0,5.9,2.0,48,39,29,29.80,29.73,7,1,17,0.00
2014-3-10,32.2,25.6,20.2,25.0,13.9,2.0,85,62,42,29.80,29.63,8,1,16,0.00
2014-3-11,44.2,36.1,30.0,39.0,32.6,25.0,97,87,74,29.62,29.41,7,1,16,0.04
2014-3-12,38.4,33.0,27.7,34.0,31.3,26.0,97,93,85,29.67,29.03,22,5,25,1.12
2014-3-13,32.9,18.8,13.1,32.0,16.4,9.0,96,90,83,29.67,28.95,32,9,37,1.17
2014-3-14,34.9,20.8,5.9,29.0,11.5,2.0,85,69,44,30.02,29.68,10,2,13,0.06
2014-3-15,42.4,37.9,32.8,40.0,35.6,29.0,96,91,79,29.83,29.54,7,1,13,0.09
2014-3-16,34.9,25.5,12.5,33.0,11.7,-2.0,96,58,38,30.11,29.64,11,4,23,0.09
2014-3-17,23.7,15.0,7.2,3.0,-1.7,-7.0,65,49,34,30.13,29.94,11,2,17,0.00
2014-3-18,33.5,21.4,10.3,16.0,4.4,-2.0,79,50,28,30.30,30.09,6,1,14,0.00
2014-3-19,36.8,28.6,17.6,27.0,18.8,10.0,86,68,45,30.37,30.06,7,2,8,0.00
2014-3-20,43.8,37.8,32.7,43.0,36.0,27.0,98,93,78,30.05,29.36,16,3,26,0.20
2014-3-21,40.2,35.3,29.9,34.0,26.8,22.0,97,72,54,29.84,29.53,11,3,22,0.20
2014-3-22,38.0,31.8,23.9,34.0,26.4,20.0,96,81,61,29.92,29.56,8,1,18,0.07
2014-3-23,38.0,29.3,13.8,29.0,17.1,1.0,92,64,31,29.98,29.78,12,3,20,0.07
2014-3-24,26.0,16.7,7.4,5.0,1.2,-3.0,70,51,36,30.03,29.89,12,3,19,0.00
2014-3-25,32.3,22.3,11.0,25.0,12.6,5.0,86,68,40,30.07,29.97,7,1,12,0.00
2014-3-26,28.4,26.0,22.6,25.0,20.9,11.0,93,82,50,29.99,29.34,41,12,49,0.00
2014-3-27,35.5,26.8,15.7,23.0,8.3,-1.0,69,47,31,30.15,29.59,11,3,23,0.00
2014-3-28,43.8,38.1,31.7,41.0,34.5,23.0,98,87,69,30.16,29.84,7,0,15,0.08
2014-3-29,50.6,40.7,33.9,41.0,37.0,33.0,99,87,64,30.20,29.87,10,2,15,0.01
2014-3-30,38.1,35.0,33.3,36.0,33.8,32.0,96,95,90,30.12,29.66,27,16,32,1.16
2014-3-31,34.4,32.2,29.5,32.0,30.7,29.0,98,94,87,29.90,29.63,36,21,49,0.03
2014-4-1,43.4,34.1,29.0,33.0,26.9,21.0,98,77,41,30.03,29.88,33,14,36,0.07
2014-4-2,41.0,32.8,26.7,32.0,25.3,16.0,95,74,60,30.07,30.00,13,3,17,0.07
2014-4-3,46.6,35.8,26.1,35.0,27.4,22.0,97,75,39,30.06,29.95,9,1,16,0.00
2014-4-4,46.2,36.0,26.5,34.0,27.3,22.0,89,72,48,30.12,29.96,9,1,10,0.01
2014-4-5,45.5,39.5,34.9,44.0,37.9,30.0,98,94,77,29.98,29.48,11,2,18,0.02
2014-4-6,49.0,39.9,31.4,29.0,25.4,20.0,78,58,35,30.05,29.68,17,1,21,0.02
2014-4-7,55.3,39.9,27.4,38.0,31.2,24.0,93,74,40,30.16,30.00,3,0,11,0.00
2014-4-8,47.9,43.1,37.3,47.0,42.3,34.0,99,96,89,30.01,29.21,20,3,33,0.34
2014-4-9,52.3,43.0,32.7,44.0,30.8,14.0,99,66,32,29.79,29.24,9,1,18,0.35
2014-4-10,48.6,38.5,25.4,35.0,26.3,16.0,78,63,41,30.04,29.80,11,1,24,0.00
2014-4-11,60.4,47.8,42.1,47.0,41.4,34.0,93,79,59,29.93,29.82,6,1,17,0.02
2014-4-12,63.0,49.6,38.4,42.0,35.9,27.0,92,63,29,30.16,29.91,11,1,15,0.00
2014-4-13,45.8,40.9,38.0,44.0,35.6,28.0,95,82,60,30.31,29.97,16,4,23,0.19
2014-4-14,61.1,50.7,43.6,55.0,48.2,43.0,98,91,77,29.96,29.79,7,1,20,0.19
2014-4-15,53.9,51.4,48.8,52.0,49.8,47.0,98,94,89,29.84,29.52,14,2,25,0.38
2014-4-16,51.1,34.7,27.2,51.0,25.9,14.0,98,73,40,30.58,29.52,17,2,23,0.14
2014-4-17,43.7,32.4,23.7,27.0,20.9,16.0,91,65,37,30.77,30.57,15,4,21,0.14
2014-4-18,45.0,35.0,25.7,34.0,29.5,24.0,94,81,61,30.63,30.17,11,2,13,0.00
2014-4-19,51.7,40.7,29.8,40.0,31.4,25.0,95,72,45,30.29,30.04,8,1,22,0.00
2014-4-20,52.2,40.3,31.6,33.0,28.7,24.0,87,65,37,30.44,30.26,9,2,14,0.00
2014-4-21,53.1,44.0,36.5,40.0,37.8,33.0,94,80,53,30.27,29.76,7,1,14,0.00
2014-4-22,56.5,47.4,41.3,48.0,43.7,40.0,96,87,65,29.75,29.43,7,0,13,0.00
2014-4-23,57.7,47.0,38.5,51.0,44.6,37.0,98,91,77,29.42,29.30,17,2,24,0.32
2014-4-24,46.3,40.7,38.4,40.0,36.8,35.0,92,86,74,29.75,29.33,26,8,47,0.02
2014-4-25,55.2,44.0,34.2,40.0,35.4,30.0,93,74,40,29.86,29.75,25,5,29,0.02
2014-4-26,46.5,39.5,32.4,41.0,37.3,31.0,97,92,72,29.86,29.78,5,1,7,0.25
2014-4-27,48.9,43.5,38.4,43.0,39.3,37.0,96,86,72,29.88,29.79,20,6,25,0.01
2014-4-28,46.1,43.2,40.2,41.0,38.6,36.0,92,84,78,30.23,29.86,26,13,33,0.05
2014-4-29,48.8,41.8,36.9,39.0,35.7,34.0,89,79,59,30.51,30.24,21,12,25,0.00
2014-4-30,45.8,39.9,35.8,38.0,35.3,32.0,91,84,74,30.54,30.25,10,3,11,0.00
2014-5-1,48.8,44.1,39.0,48.0,43.3,37.0,99,97,92,30.24,29.59,11,1,18,0.40
2014-5-2,59.9,50.8,43.1,54.0,47.1,42.0,100,88,61,29.68,29.51,5,0,11,0.41
2014-5-3,60.6,48.5,38.8,48.0,42.3,38.0,98,81,51,29.75,29.67,2,0,9,0.00
2014-5-4,54.4,47.5,40.5,49.0,44.5,39.0,96,89,74,29.67,29.36,10,0,16,0.07
2014-5-5,57.8,49.4,42.8,44.0,41.8,37.0,94,76,47,29.66,29.42,19,4,28,0.01
2014-5-6,58.7,48.8,40.5,47.0,42.4,38.0,94,79,52,29.86,29.66,12,1,16,0.01
2014-5-7,50.0,44.9,39.3,42.0,39.6,36.0,90,82,71,30.02,29.86,9,1,21,0.01
2014-5-10,54.0,51.0,48.5,54.0,50.1,46.0,99,96,89,29.90,29.61,5,0,14,0.31
2014-5-11,72.8,59.8,46.2,56.0,46.1,37.0,99,66,29,29.89,29.61,7,1,17,0.31
2014-5-12,61.6,51.0,44.9,51.0,45.6,43.0,91,82,65,30.12,29.89,12,3,17,0.00
2014-5-13,57.7,47.8,37.8,43.0,38.4,34.0,90,71,46,30.27,30.12,13,4,18,0.00
2014-5-14,52.5,45.7,36.9,46.0,42.0,35.0,95,87,68,30.32,30.24,4,0,13,0.00
2014-5-15,60.6,51.4,44.9,54.0,49.0,43.0,96,91,79,30.28,30.21,3,0,8,0.00
2014-5-16,65.8,57.8,49.2,57.0,52.9,48.0,97,84,71,30.22,30.09,6,0,14,0.00
2014-5-17,58.2,54.0,49.6,54.0,51.8,49.0,98,92,84,30.08,29.91,7,1,13,0.32
2014-5-18,55.8,51.7,49.4,54.0,50.9,49.0,99,97,93,30.00,29.92,13,5,16,0.16
2014-5-19,56.0,51.0,49.0,54.0,50.3,48.0,99,97,92,29.92,29.84,12,1,18,0.29
2014-5-20,61.4,54.6,50.8,55.0,52.2,50.0,98,92,75,29.88,29.83,16,4,23,0.03
2014-5-21,59.3,53.7,47.0,56.0,52.1,46.0,97,94,88,29.92,29.87,5,0,6,0.01
2014-5-22,65.4,53.1,44.7,56.0,49.7,44.0,99,89,59,29.91,29.81,5,0,8,0.01
2014-5-23,60.1,51.2,44.1,54.0,48.3,43.0,99,90,76,29.94,29.83,10,1,12,0.01
2014-5-24,59.3,50.7,43.2,50.0,46.3,42.0,97,85,71,29.99,29.91,7,1,10,0.00
2014-5-25,62.6,51.9,44.5,53.0,47.8,43.0,96,86,70,30.01,29.92,4,0,7,0.00
2014-5-26,72.4,58.3,47.8,64.0,54.7,47.0,98,88,65,29.91,29.57,7,1,17,0.05
2014-5-27,55.8,52.3,49.0,54.0,48.2,45.0,96,86,73,29.97,29.71,17,6,21,0.01
2014-5-28,55.3,47.1,40.2,46.0,43.3,39.0,95,87,63,30.14,29.95,14,7,19,0.05
2014-5-29,63.5,49.4,36.9,48.0,40.8,36.0,98,75,42,30.17,30.06,6,1,11,0.00
2014-5-30,56.6,48.6,41.8,51.0,45.4,40.0,97,89,70,30.07,29.98,6,1,10,0.00
2014-5-31,65.6,52.2,39.9,47.0,41.3,36.0,99,71,38,30.18,30.03,8,2,9,0.00
2014-6-1,70.6,58.3,46.7,51.0,46.1,41.0,91,66,41,30.26,30.13,6,1,8,0.00
2014-6-2,65.0,56.0,47.0,54.0,49.0,42.0,92,78,64,30.14,29.96,6,1,10,0.00
2014-6-3,67.2,57.5,47.5,54.0,48.8,44.0,97,75,46,30.02,29.91,9,1,10,0.00
2014-6-4,55.2,53.2,50.5,54.0,52.2,50.0,98,96,93,29.90,29.74,3,0,7,0.08
2014-6-5,57.9,54.9,52.1,57.0,54.6,52.0,99,98,97,29.75,29.50,12,4,14,0.31
2014-6-6,67.4,61.6,57.8,62.0,58.6,56.0,97,90,74,29.68,29.47,10,2,15,0.05
2014-6-7,81.6,68.1,55.9,62.0,57.6,54.0,93,72,44,29.79,29.68,9,2,16,0.05
2014-6-8,76.6,63.2,53.6,64.0,57.2,53.0,98,82,56,29.84,29.77,5,1,10,0.00
2014-6-9,82.9,65.2,52.9,66.0,58.3,52.0,98,81,50,29.86,29.79,5,1,8,0.00
2014-6-10,67.1,60.9,54.2,62.0,57.5,52.0,96,88,78,30.04,29.86,18,4,22,0.00
2014-6-11,72.2,60.5,48.1,59.0,52.7,47.0,98,77,52,30.11,30.04,6,1,11,0.00
2014-6-12,64.5,57.9,54.2,56.0,52.4,48.0,94,82,64,30.17,30.10,4,0,5,0.02
2014-6-13,61.1,57.1,54.2,56.0,53.5,49.0,97,88,77,30.12,29.80,18,6,38,0.86
2014-6-14,68.2,60.6,55.5,64.0,58.9,55.0,99,94,85,29.79,29.70,7,1,16,1.04
2014-6-15,69.9,64.3,56.4,61.0,55.7,50.0,95,75,55,29.90,29.74,23,4,25,0.03
2014-6-16,74.8,62.5,53.4,52.0,48.2,44.0,87,61,37,30.01,29.89,12,4,21,0.00
2014-6-17,66.8,59.2,51.8,60.0,55.3,50.0,97,87,76,30.00,29.83,5,1,10,0.00
2014-6-18,74.8,63.4,54.8,67.0,60.8,54.0,99,92,75,29.82,29.53,12,1,19,0.52
2014-6-19,76.7,67.6,56.2,62.0,52.4,40.0,95,62,27,29.85,29.73,9,2,15,0.00
2014-6-20,63.3,58.1,50.2,47.0,44.4,41.0,84,61,46,29.83,29.76,13,2,20,0.00
2014-6-21,71.9,61.3,49.3,54.0,50.0,45.0,86,68,44,29.81,29.74,10,1,12,0.00
2014-6-22,71.9,60.6,50.4,58.0,52.6,49.0,95,76,57,29.96,29.80,5,1,10,0.00
2014-6-23,73.8,60.7,49.0,60.0,52.7,48.0,97,77,50,30.08,29.96,6,1,10,0.00
2014-6-24,69.5,62.1,53.2,60.0,55.4,51.0,93,79,68,30.08,29.98,10,1,14,0.00
2014-6-25,65.6,63.1,60.0,64.0,60.8,58.0,96,92,86,29.88,29.83,12,2,14,0.05
2014-6-26,60.0,58.7,56.3,59.0,57.0,54.0,98,94,85,29.89,29.76,17,9,22,0.01
2014-6-27,77.4,62.9,53.2,57.0,52.7,49.0,92,72,41,30.10,29.89,11,3,14,0.01
2014-6-28,81.5,64.7,49.9,63.0,55.3,49.0,97,75,41,30.17,30.10,5,1,9,0.00
2014-6-29,84.8,67.8,53.0,65.0,56.8,50.0,97,71,42,30.14,29.98,8,1,13,0.00
2014-6-30,73.8,65.5,56.0,66.0,60.3,53.0,95,83,74,29.99,29.78,8,1,9,0.00
2014-7-1,77.2,67.7,59.8,70.0,63.9,59.0,97,88,75,29.79,29.69,4,1,8,0.00
2014-7-2,75.2,67.9,62.3,69.0,65.0,60.0,95,90,81,29.86,29.69,6,1,14,0.00
2014-7-3,74.9,67.0,62.4,70.0,65.4,62.0,99,94,85,29.91,29.84,4,1,8,0.00
2014-7-4,75.5,67.4,60.9,70.0,65.7,60.0,99,94,84,29.92,29.80,7,1,8,0.06
2014-7-5,63.2,57.5,53.6,57.0,55.0,53.0,97,91,73,29.69,29.56,9,0,21,0.30
2014-7-6,79.4,69.5,59.6,63.0,58.7,57.0,94,70,50,29.76,29.67,11,1,14,0.30
2014-7-7,73.8,64.1,55.5,66.0,60.6,54.0,96,88,74,29.72,29.62,4,0,15,0.00
2014-7-8,76.0,66.8,61.2,70.0,64.1,60.0,98,91,79,29.68,29.60,5,1,8,0.01
2014-7-9,79.2,69.1,61.0,70.0,64.7,59.0,99,87,67,29.82,29.58,7,1,14,0.00
2014-7-10,79.5,69.3,59.9,67.0,60.9,54.0,98,77,48,30.08,29.81,7,1,10,0.00
2014-7-11,76.5,65.4,55.7,61.0,57.1,54.0,95,76,53,30.15,30.07,4,0,9,0.00
2014-7-12,77.4,66.0,55.7,66.0,60.5,55.0,98,83,65,30.13,30.05,4,0,7,0.00
2014-7-13,71.4,64.6,58.6,66.0,61.7,58.0,97,90,79,30.05,29.83,7,1,11,0.00
2014-7-14,78.8,68.8,63.5,71.0,66.1,62.0,98,91,73,29.82,29.75,5,1,10,0.05
2014-7-15,65.5,64.5,63.5,65.0,64.3,63.0,100,99,98,29.81,29.71,6,0,7,0.07
2014-7-16,66.2,63.9,62.4,66.0,63.9,62.0,100,100,100,29.77,29.72,5,1,11,0.62
2014-7-17,77.4,67.8,61.4,69.0,64.8,61.0,100,91,63,29.94,29.74,4,1,6,0.65
2014-7-18,77.5,66.7,55.9,65.0,59.8,55.0,99,80,54,30.14,29.95,6,1,10,0.01
2014-7-19,78.9,66.3,57.1,66.0,59.9,57.0,99,81,55,30.20,30.14,5,0,10,0.00
2014-7-20,75.3,66.8,60.7,64.0,60.9,59.0,97,82,60,30.17,30.11,4,0,8,0.00
2014-7-21,76.8,66.0,58.3,66.0,60.3,57.0,98,83,58,30.13,30.06,6,1,7,0.00
2014-7-22,75.3,65.7,58.2,69.0,63.0,58.0,99,91,78,30.07,29.88,4,1,8,0.01
2014-7-23,77.9,69.6,61.7,72.0,66.9,61.0,99,91,79,29.87,29.64,5,1,11,0.01
2014-7-24,70.2,65.0,58.4,68.0,63.0,58.0,99,93,80,29.79,29.64,15,2,22,0.31
2014-7-25,78.6,66.2,54.0,64.0,59.1,52.0,98,79,51,29.84,29.77,4,1,10,0.31
2014-7-26,78.0,66.2,58.5,67.0,62.5,58.0,99,89,61,29.86,29.79,5,1,11,0.01
2014-7-27,71.0,64.2,57.8,67.0,62.7,57.0,99,95,85,29.79,29.64,6,1,13,0.08
2014-7-28,68.9,65.6,63.0,68.0,65.2,63.0,100,98,96,29.65,29.42,6,1,14,0.13
2014-7-29,75.5,65.9,58.7,67.0,62.6,58.0,100,90,67,29.87,29.42,3,0,10,0.13
2014-7-30,71.8,64.4,58.2,65.0,61.2,57.0,99,89,75,29.97,29.87,7,1,12,0.00
2014-7-31,72.3,64.4,58.7,67.0,62.3,58.0,98,93,78,30.09,29.97,6,1,9,0.00
2014-8-1,75.7,67.0,60.0,68.0,64.3,60.0,99,91,77,30.16,30.08,5,1,9,0.00
2014-8-2,72.0,65.3,58.9,68.0,63.6,58.0,99,94,85,30.17,30.08,3,0,7,0.02
2014-8-3,72.8,63.7,56.4,65.0,59.9,56.0,99,88,69,30.08,29.98,5,1,7,0.02
2014-8-4,74.9,65.2,57.7,68.0,62.3,57.0,99,90,76,29.98,29.90,5,0,10,0.00
2014-8-5,81.0,69.3,59.9,71.0,64.5,59.0,99,86,63,29.93,29.81,4,0,11,0.00
2014-8-6,73.7,65.9,63.2,69.0,65.0,62.0,99,96,81,29.81,29.67,5,0,11,0.39
2014-8-7,75.5,63.4,55.8,64.0,60.4,56.0,99,91,61,29.80,29.70,6,0,8,0.16
2014-8-8,77.8,64.2,56.0,67.0,60.9,56.0,99,89,62,29.88,29.79,6,1,13,0.07
2014-8-9,77.4,67.2,59.6,64.0,60.9,58.0,95,81,58,29.97,29.87,10,2,16,0.08
2014-8-10,75.5,65.0,56.8,67.0,60.4,55.0,97,86,70,30.06,29.96,3,0,7,0.00
2014-8-11,72.2,62.1,55.0,65.0,59.2,55.0,99,90,72,30.09,30.05,6,0,8,0.01
2014-8-12,73.2,63.1,53.8,62.0,58.6,53.0,99,86,67,30.11,30.05,5,1,7,0.01
2014-8-13,64.4,61.2,58.6,62.0,59.6,58.0,98,94,88,30.05,29.68,19,6,26,0.27
2014-8-14,69.3,62.4,57.3,65.0,60.8,57.0,99,94,83,29.76,29.59,18,4,26,0.76
2014-8-15,70.0,62.2,55.7,62.0,59.3,56.0,100,91,62,29.80,29.75,6,1,9,0.00
2014-8-16,72.8,62.9,54.4,62.0,58.8,54.0,99,87,65,29.85,29.77,5,0,9,0.01
2014-8-17,69.0,62.9,59.0,64.0,61.2,58.0,98,94,81,29.83,29.65,2,0,6,0.06
2014-8-18,72.7,63.6,57.3,62.0,58.8,55.0,99,85,61,29.74,29.62,12,2,15,0.01
2014-8-19,74.6,63.3,54.1,64.0,57.4,52.0,96,82,64,29.86,29.74,5,1,9,0.01
2014-8-20,79.3,64.8,54.5,65.0,59.2,54.0,99,84,56,29.99,29.86,5,0,7,0.00
2014-8-21,75.0,64.7,56.5,67.0,61.0,56.0,99,88,72,30.07,29.98,12,2,12,0.01
2014-8-22,69.7,65.0,62.1,63.0,60.5,59.0,92,86,71,30.09,30.04,10,3,13,0.00
2014-8-23,71.2,64.3,55.9,61.0,58.2,54.0,94,81,62,30.07,30.03,13,4,16,0.00
2014-8-24,79.5,65.2,54.5,69.0,60.5,54.0,98,85,61,30.05,29.96,4,1,7,0.00
2014-8-25,79.8,66.8,56.9,68.0,62.3,56.0,99,86,64,30.05,29.99,4,0,6,0.00
2014-8-26,74.7,66.2,60.7,68.0,63.4,59.0,99,91,78,30.07,29.93,7,1,9,0.00
2014-8-27,76.7,67.4,60.3,69.0,64.2,59.0,98,89,74,29.92,29.73,4,1,8,0.00
2014-8-28,75.7,67.7,60.0,65.0,58.6,51.0,98,74,44,29.82,29.64,15,2,24,0.01
2014-8-29,68.5,60.3,52.8,54.0,51.8,47.0,92,74,47,30.18,29.82,14,4,17,0.01
2014-8-30,70.3,59.8,48.8,61.0,54.9,48.0,98,85,62,30.22,30.03,9,1,13,0.00
2014-8-31,74.8,66.5,60.5,69.0,63.9,59.0,97,91,80,30.03,29.84,7,0,12,0.11
2014-9-1,79.1,68.5,63.3,73.0,67.0,63.0,99,95,79,29.88,29.83,6,0,10,0.17
2014-9-2,69.9,64.3,58.8,68.0,63.7,59.0,100,98,92,29.87,29.67,5,1,6,0.00
2014-9-3,82.0,71.2,62.8,70.0,62.8,55.0,100,77,44,29.94,29.58,9,1,15,0.00
2014-9-4,78.9,66.4,56.3,63.0,58.0,55.0,95,76,52,30.07,29.95,5,0,10,0.00
2014-9-5,79.3,66.8,57.2,68.0,62.5,56.0,98,87,69,30.04,29.84,4,0,8,0.00
2014-9-6,77.4,69.0,62.4,72.0,67.0,62.0,97,93,84,29.84,29.63,13,1,21,0.46
2014-9-7,72.1,62.5,54.1,61.0,54.9,50.0,97,78,47,30.12,29.79,9,1,13,0.46
2014-9-8,67.9,57.0,48.9,53.0,48.1,43.0,96,75,42,30.35,30.13,7,1,9,0.00
2014-9-9,67.3,56.1,47.1,54.0,49.1,44.0,97,80,43,30.37,30.17,8,1,10,0.01
2014-9-10,68.5,57.5,49.0,60.0,54.2,48.0,97,89,73,30.17,29.97,8,1,9,0.01
2014-9-11,67.3,60.5,54.4,64.0,59.2,54.0,99,95,79,29.98,29.68,9,1,15,0.14
2014-9-12,64.5,57.7,50.4,63.0,50.0,46.0,98,77,56,30.16,29.71,10,2,17,0.15
2014-9-13,59.8,54.7,47.4,55.0,49.0,44.0,95,81,63,30.27,30.02,11,4,14,0.05
2014-9-14,61.0,54.5,45.4,55.0,48.7,42.0,97,81,64,30.13,29.99,13,2,20,0.06
2014-9-15,60.8,51.1,40.9,48.0,43.7,39.0,95,77,51,30.16,30.02,9,1,11,0.00
2014-9-16,61.7,54.8,49.4,56.0,52.2,48.0,97,91,77,30.02,29.87,3,0,7,0.02
2014-9-17,67.8,55.9,46.3,56.0,49.8,46.0,99,82,48,29.92,29.86,7,1,11,0.03
2014-9-18,67.4,55.7,46.2,57.0,47.9,37.0,99,77,52,30.06,29.81,10,1,20,0.00
2014-9-19,55.4,45.9,35.6,40.0,34.9,27.0,89,68,34,30.34,30.07,16,4,19,0.00
2014-9-20,62.1,54.0,41.7,56.0,47.7,37.0,89,79,64,30.32,29.99,9,2,16,0.01
2014-9-21,69.1,62.2,58.0,66.0,60.6,56.0,99,94,85,29.99,29.48,5,0,13,0.20
2014-9-22,71.5,61.4,49.0,67.0,55.3,41.0,100,82,54,29.90,29.37,12,2,19,0.22
2014-9-23,63.6,52.5,42.4,49.0,44.6,39.0,92,76,54,30.31,29.90,7,1,13,0.00
2014-9-24,60.9,52.0,43.8,49.0,45.7,40.0,96,80,53,30.59,30.32,11,1,15,0.00
2014-9-25,63.8,51.9,43.9,56.0,48.8,43.0,99,89,66,30.50,30.19,5,0,8,0.01
2014-9-26,72.2,56.1,44.7,61.0,52.5,44.0,99,89,65,30.18,30.03,5,0,8,0.01
2014-9-27,79.3,62.7,52.1,62.0,56.9,51.0,99,84,47,30.07,30.00,6,0,13,0.01
2014-9-28,75.6,62.3,53.0,65.0,58.7,53.0,99,89,69,30.06,29.86,5,0,6,0.01
2014-9-29,66.3,56.7,51.9,62.0,54.7,50.0,99,93,84,30.04,29.85,18,8,24,0.01
2014-9-30,56.6,53.3,50.3,55.0,52.0,49.0,97,95,93,30.01,29.95,14,8,17,0.01
2014-10-1,59.4,56.9,54.8,56.0,54.1,52.0,93,90,86,30.11,29.98,13,9,19,0.00
2014-10-2,62.1,55.3,50.3,53.0,50.3,46.0,95,84,67,30.16,30.06,15,8,18,0.00
2014-10-3,64.8,55.2,47.9,55.0,50.4,45.0,95,84,65,30.10,29.85,14,5,16,0.00
2014-10-4,61.7,58.1,54.7,62.0,57.0,52.0,99,96,87,29.85,29.55,13,5,19,0.11
2014-10-5,64.0,58.0,46.1,62.0,55.6,45.0,99,92,66,29.83,29.48,5,1,16,0.59
2014-10-6,62.6,50.7,41.4,52.0,45.3,41.0,98,84,49,30.14,29.84,5,1,12,0.01
2014-10-7,65.7,57.4,46.1,58.0,52.4,45.0,99,84,64,30.15,29.97,10,2,15,0.01
2014-10-8,65.2,60.0,52.6,63.0,57.9,51.0,97,92,86,29.97,29.57,11,2,13,0.20
2014-10-9,60.5,53.2,45.0,51.0,44.1,40.0,94,73,49,29.83,29.68,9,1,14,0.20
2014-10-10,59.7,49.5,42.0,44.0,40.0,38.0,89,72,46,30.03,29.83,9,1,12,0.00
2014-10-11,52.1,44.3,39.7,45.0,41.6,38.0,97,90,77,30.08,29.98,4,0,5,0.00
2014-10-12,58.7,47.3,39.2,45.0,40.1,37.0,97,79,45,30.20,30.01,11,2,17,0.00
2014-10-13,62.8,50.8,38.1,53.0,45.6,38.0,98,84,55,30.27,30.16,11,1,13,0.00
2014-10-14,65.7,59.6,54.2,62.0,57.4,52.0,96,92,87,30.15,30.05,6,1,15,0.00
2014-10-15,68.3,62.7,59.3,64.0,61.1,58.0,98,94,85,30.06,29.97,9,1,11,0.00
2014-10-16,66.8,63.5,60.3,66.0,62.9,60.0,99,97,94,29.97,29.71,7,1,9,0.13
2014-10-17,63.7,60.4,54.7,64.0,59.4,54.0,99,96,89,29.71,29.48,5,1,14,0.03
2014-10-18,64.2,58.3,53.4,62.0,57.2,53.0,98,96,88,29.59,29.41,4,0,10,0.22
2014-10-19,53.2,46.5,39.2,53.0,40.9,33.0,99,82,62,29.72,29.41,13,1,17,0.23
2014-10-20,50.6,43.3,34.6,40.0,33.8,29.0,91,70,45,29.93,29.73,10,1,11,0.00
2014-10-21,54.2,49.6,43.0,51.0,46.0,40.0,96,87,73,30.07,29.93,19,7,21,0.23
2014-10-22,51.3,49.5,48.3,50.0,47.8,47.0,96,93,89,30.10,29.98,29,19,39,0.30
2014-10-23,52.9,51.5,49.2,52.0,50.3,47.0,96,95,93,29.96,29.60,25,19,39,1.15
2014-10-24,51.8,48.2,43.5,50.0,46.8,42.0,97,95,92,29.62,29.52,19,7,21,0.07
2014-10-25,59.5,49.2,43.9,48.0,42.9,37.0,96,81,45,29.59,29.38,10,1,13,0.07
2014-10-26,58.5,49.5,42.9,52.0,46.1,41.0,98,88,63,29.46,29.27,7,1,11,0.03
2014-10-27,56.0,48.5,41.5,44.0,40.7,39.0,92,75,58,29.86,29.46,12,1,19,0.03
2014-10-28,52.9,46.6,40.8,50.0,42.9,38.0,93,87,80,30.04,29.86,4,0,8,0.01
2014-10-29,57.9,55.6,52.7,57.0,54.3,50.0,98,95,90,29.91,29.67,4,0,8,0.13
2014-10-30,55.4,47.1,38.8,52.0,43.2,35.0,99,87,67,29.90,29.70,6,0,9,0.14
2014-10-31,51.4,44.2,34.4,42.0,38.0,32.0,93,79,58,29.99,29.90,11,3,15,0.00
2014-11-1,46.0,42.9,36.4,44.0,40.1,35.0,96,90,80,29.94,29.74,25,16,37,0.47
2014-11-2,38.7,36.0,33.0,37.0,35.1,32.0,98,96,94,29.76,29.25,33,20,47,0.54
2014-11-3,42.6,35.8,29.7,34.0,29.6,26.0,89,78,64,29.91,29.65,3,0,7,0.23
2014-11-4,47.8,37.3,27.9,44.0,31.3,25.0,91,80,56,30.09,29.91,10,1,12,0.23
2014-11-5,58.0,48.9,37.0,52.0,45.3,36.0,97,88,67,30.00,29.80,4,0,11,0.02
2014-11-6,48.4,42.7,35.7,46.0,41.4,35.0,98,95,88,30.00,29.48,16,2,19,0.36
2014-11-7,46.8,40.4,34.0,46.0,38.8,31.0,98,94,83,29.50,29.23,13,3,19,0.05
2014-11-8,42.2,35.0,30.1,32.0,26.7,23.0,93,73,47,29.85,29.50,3,0,15,0.05
2014-11-9,51.6,41.9,33.3,42.0,37.8,32.0,97,86,64,29.91,29.78,4,0,10,0.00
2014-11-10,53.5,40.1,31.4,42.0,36.8,31.0,98,89,63,30.16,29.92,6,0,10,0.00
2014-11-11,55.4,45.8,33.9,51.0,43.3,33.0,99,91,73,30.15,29.94,7,0,14,0.01
2014-11-12,54.1,51.3,41.7,53.0,50.1,38.0,98,96,87,29.95,29.77,7,1,15,0.01
2014-11-13,45.3,38.7,31.1,38.0,31.7,27.0,95,77,52,29.96,29.86,7,0,12,0.01
2014-11-14,36.5,32.8,26.6,34.0,31.1,23.0,97,93,84,29.94,29.76,17,3,19,0.05
2014-11-15,33.8,27.8,22.5,24.0,20.7,18.0,88,75,54,30.21,29.94,13,0,13,0.05
2014-11-16,40.0,32.7,22.4,32.0,27.0,19.0,93,81,65,30.27,30.04,7,0,10,0.00
2014-11-17,52.6,39.2,33.7,52.0,37.4,30.0,99,93,75,30.04,29.29,12,4,17,0.51
2014-11-18,50.8,35.4,27.2,51.0,30.4,14.0,99,83,56,29.67,29.26,6,1,21,0.01
2014-11-19,34.3,27.9,23.0,24.0,16.6,13.0,88,64,48,30.01,29.67,10,2,17,0.01
2014-11-20,42.0,34.3,26.8,32.0,25.1,17.0,89,70,55,29.97,29.64,10,1,15,0.00
2014-11-21,32.7,27.2,19.8,18.0,13.2,9.0,65,56,45,30.22,29.73,8,1,19,0.00
2014-11-22,42.4,30.0,17.4,29.0,19.0,9.0,76,64,53,30.25,29.84,14,2,16,0.00
2014-11-23,52.6,42.8,35.1,43.0,35.0,24.0,97,75,54,30.10,29.85,3,0,8,0.00
2014-11-24,58.1,51.3,36.0,58.0,50.8,35.0,99,98,96,30.07,29.50,14,2,21,0.50
2014-11-25,56.9,51.7,39.5,55.0,47.5,34.0,97,86,62,29.98,29.53,8,0,13,0.01
2014-11-26,41.5,37.3,33.2,35.0,32.8,30.0,98,85,68,30.18,29.64,31,9,40,0.44
2014-11-27,34.6,30.0,26.4,34.0,28.7,24.0,98,94,87,29.97,29.51,38,8,41,0.01
2014-11-28,26.9,23.8,19.5,24.0,19.9,17.0,92,85,71,30.05,29.92,16,4,21,0.01
2014-11-29,27.5,22.0,16.8,24.0,17.5,14.0,95,83,62,30.26,30.05,5,0,12,0.01
2014-11-30,49.3,41.9,21.8,47.0,39.5,20.0,95,91,87,30.21,29.88,8,1,18,0.03
2014-12-1,57.2,46.3,31.1,49.0,39.6,17.0,90,78,50,30.36,29.84,13,1,15,0.00
2014-12-2,30.9,25.3,22.1,19.0,14.1,9.0,79,63,53,30.71,30.37,17,7,24,0.00
2014-12-3,52.0,42.6,24.9,52.0,41.5,20.0,98,96,80,30.49,29.68,13,2,16,0.25
2014-12-4,39.6,31.1,19.5,36.0,19.7,6.0,91,65,37,30.52,29.81,15,2,24,0.25
2014-12-5,30.8,21.6,15.3,27.0,13.2,7.0,87,71,52,30.70,30.48,14,4,19,0.00
2014-12-6,39.8,35.8,31.2,39.0,34.8,28.0,98,96,86,30.48,29.96,8,1,11,0.42
2014-12-7,34.7,25.3,12.1,34.0,19.8,3.0,97,80,60,30.68,30.15,27,7,38,0.01
2014-12-8,22.4,16.2,9.2,17.0,8.7,1.0,83,72,54,30.78,30.59,26,11,32,0.01
2014-12-9,42.1,36.1,22.7,41.0,34.2,18.0,96,92,81,30.57,29.74,35,13,39,1.32
2014-12-10,43.9,40.4,39.1,43.0,39.6,38.0,98,96,95,29.73,29.34,30,18,34,0.54
2014-12-11,46.0,40.8,37.0,43.0,39.0,34.0,99,93,81,29.70,29.39,5,0,14,0.19
2014-12-12,38.9,36.9,33.9,36.0,34.6,33.0,95,91,82,29.76,29.66,8,0,10,0.20
2014-12-13,37.1,35.1,33.1,35.0,33.6,32.0,97,94,91,29.66,29.61,2,0,11,0.00
2014-12-14,38.0,35.4,29.6,35.0,33.0,28.0,96,91,86,29.77,29.65,13,3,16,0.00
2014-12-15,32.6,30.8,28.8,30.0,27.9,26.0,95,89,85,30.11,29.77,18,4,24,0.00
2014-12-16,39.3,34.0,29.0,39.0,31.8,26.0,98,91,86,30.14,29.95,8,1,10,0.04
2014-12-17,42.3,39.3,35.2,42.0,38.7,34.0,99,97,96,29.94,29.49,18,7,24,0.40
2014-12-18,35.2,32.6,30.6,34.0,30.9,27.0,96,93,85,29.67,29.48,8,1,14,0.07
2014-12-19,32.7,29.7,26.2,28.0,26.0,22.0,91,86,79,30.05,29.66,18,1,22,0.07
2014-12-20,27.7,26.1,22.2,25.0,23.0,19.0,91,88,84,30.28,30.06,22,8,26,0.00
2014-12-21,34.5,27.5,27.1,30.0,24.9,25.0,93,82,83,30.32,30.25,12,5,14,0.00
2014-12-22,37.2,33.4,28.3,35.0,31.0,27.0,94,91,83,30.37,30.31,10,5,12,0.00
2014-12-23,38.3,37.1,35.1,37.0,35.7,34.0,98,95,87,30.34,30.20,13,7,16,0.08
2014-12-24,53.9,41.6,37.1,54.0,41.4,37.0,100,99,98,30.21,29.55,12,6,16,0.83
2014-12-25,56.7,49.8,41.0,57.0,46.6,31.0,100,89,65,29.72,29.33,10,1,18,0.40
2014-12-26,46.7,40.3,33.8,32.0,30.3,29.0,84,68,52,30.02,29.73,8,1,20,0.00
2014-12-27,46.9,37.3,29.9,34.0,31.1,28.0,96,80,58,30.09,29.92,7,0,12,0.00
2014-12-28,44.4,40.3,31.1,44.0,38.1,28.0,97,92,74,29.91,29.58,8,0,12,0.58
2014-12-29,36.9,30.8,21.2,28.0,18.1,9.0,82,61,39,30.14,29.85,12,1,14,0.00
2014-12-30,20.7,16.6,12.1,11.0,3.8,-2.0,72,58,39,30.27,30.14,8,1,13,0.00
2014-12-31,23.1,16.4,10.7,8.0,4.0,0.0,78,59,44,30.22,30.03,8,1,15,0.00
2015-1-1,30.2,25.4,14.5,19.0,12.1,8.0,82,58,42,30.02,29.80,8,1,13,0.00
2015-1-2,33.7,27.3,16.4,20.0,11.1,-1.0,65,51,37,30.37,29.79,13,2,22,0.00